Startseite
Über Mich
AHP4
Galerie
Sehschlangen
Tourenbuch
Bookmarks
Elektronik
Bewertung
Geschichten
[Tagesmessung] [Jahreswerte] [Information]

Messwerte vom 16.03.2022

Die letzten Messwerte von 23:58:44 Uhr:
KategorieMesswert
Temperatur [°C]5
Luftdruck [mBar]1010
Sonneneinstrahlung0
Wind [km/h]2 aus
Niederschlag [l/m²]0
rel.Luftfeucht.88.1%
CO2 [ppm]407

Diagramme
Messwerte vom 16.03.2022
Tagesaggregation
KategorieMinimumMaximumSchnittSumme
Temperatur [°C]-2166.1875
Luftdruck [mBar]100910131010.8833
Sonneneinstrahlung245107.4521
Wind [km/h]11
rF [%]4096.682.9
Niederschlag [l/m²]0
CO2 [ppm]399419405.6
Einordnung alsFrosttag
Vegetationstag

Messungen an benachbarten Tagen: Zur Jahresaggregation 2022
Tabelle aller Messwerte
UhrzeitTemperatur [°C]Luftdruck [mBar]SonneWind [km/h]RichtungRegen [l/m²]rF [%]CO2 [ppm]
00:01:48 1 1009 0 0 SO 0 96.6 407
00:04:47 1 1009 0 0 SO 0 96.6 407
00:07:47 1 1009 0 0 SO 0 96.6 407
00:10:48 1 1009 0 0 SO 0 96.6 407
00:13:46 1 1009 0 0 SO 0 96.6 404
00:16:48 1 1009 0 0 SO 0 96.6 407
00:19:49 2 1009 0 0 SO 0 96.6 405
00:22:48 2 1009 0 0 SO 0 96.6 404
00:25:47 2 1009 0 0 SO 0 96.6 408
00:28:45 2 1009 0 0 S 0 96.6 407
00:31:48 2 1009 0 0 SO 0 96.6 401
00:34:47 2 1010 0 0 SO 0 96.6 402
00:37:48 1 1009 0 0 S 0 96.6 404
00:40:46 1 1009 0 0 S 0 96.6 407
00:43:46 1 1009 0 0 S 0 96.6 407
00:46:47 1 1009 0 0 NW 0 96.6 408
00:49:47 1 1010 0 0 NW 0 96.6 407
00:52:48 1 1009 0 0 NW 0 96.6 407
00:55:48 1 1009 0 0 SO 0 96.6 407
00:58:46 1 1009 0 0 SO 0 96.6 404
01:01:48 1 1010 0 0 SO 0 96.6 407
01:04:47 0 1010 0 0 SO 0 96.6 407
01:07:49 0 1010 0 0 SO 0 96.6 407
01:10:47 0 1009 0 0 SO 0 96.6 407
01:13:46 0 1010 0 0 SO 0 96.6 407
01:16:47 0 1010 0 0 SO 0 96.6 407
01:19:48 0 1010 0 0 SO 0 96.6 404
01:22:47 0 1010 0 0 SO 0 96.6 407
01:25:49 0 1010 0 0 SO 0 96.6 407
01:28:46 0 1009 0 0 N 0 96.6 404
01:31:46 0 1010 0 0 N 0 96.6 407
01:34:45 0 1009 0 0 S 0 96.6 407
01:37:46 0 1010 0 0 S 0 96.6 407
01:40:45 0 1010 0 0 S 0 96.6 404
01:43:46 0 1010 0 0 S 0 96.6 401
01:46:46 0 1010 0 0 S 0 96.6 405
01:49:45 0 1010 0 0 S 0 96.6 407
01:52:45 0 1010 0 0 S 0 96.6 407
01:55:47 0 1010 0 0 S 0 96.6 405
01:58:47 0 1010 0 0 S 0 96.6 406
02:01:48 1 1010 0 0 SO 0 96.6 407
02:04:46 0 1010 0 0 SO 0 96.6 407
02:07:48 0 1010 0 0 SO 0 96.6 407
02:10:48 0 1010 0 0 SO 0 96.6 407
02:13:50 0 1010 0 0 NO 0 96.6 405
02:16:46 0 1010 0 0 NO 0 96.6 407
02:19:50 0 1010 0 0 NO 0 96.6 407
02:22:46 0 1010 0 0 NO 0 96.6 407
02:25:47 0 1010 0 0 NO 0 96.6 407
02:28:49 0 1010 0 0 NO 0 96.6 404
02:31:48 0 1010 0 0 NO 0 96.6 404
02:34:48 0 1010 0 0 NO 0 96.6 404
02:37:48 0 1010 0 0 NO 0 96.6 404
02:40:48 0 1010 0 0 SO 0 96.6 407
02:43:47 0 1010 0 0 SO 0 96.6 404
02:46:48 0 1010 0 0 SO 0 96.6 407
02:49:47 0 1010 0 0 S 0 96.6 404
02:52:48 0 1010 0 0 NW 0 96.6 403
02:55:47 0 1010 0 0 NW 0 96.6 401
02:58:45 0 1010 0 0 N 0 96.6 407
03:01:46 0 1010 0 1 W 0 96.6 407
03:04:46 0 1010 0 2 SO 0 96.6 407
03:07:46 0 1010 0 0 SO 0 96.6 404
03:10:46 0 1010 0 1 N 0 96.6 407
03:13:46 0 1010 0 0 N 0 96.6 404
03:16:46 0 1010 0 0 N 0 96.6 406
03:19:44 0 1010 0 0 N 0 96.6 404
03:22:45 0 1010 0 0 N 0 96.6 404
03:25:46 0 1010 0 0 N 0 96.6 404
03:28:47 0 1010 0 0 N 0 96.6 399
03:31:48 0 1010 0 0 N 0 96.6 404
03:34:46 0 1010 0 0 N 0 96.6 404
03:37:47 0 1010 0 0 N 0 96.6 407
03:40:45 0 1010 0 0 N 0 96.6 407
03:43:45 0 1010 0 0 N 0 96.6 404
03:46:46 0 1010 0 0 O 0 96.6 404
03:49:46 0 1010 0 0 N 0 96.6 407
03:52:46 0 1010 0 0 N 0 96.6 401
03:55:45 0 1011 0 0 O 0 96.6 404
03:58:46 0 1011 0 0 O 0 96.6 407
04:01:46 0 1010 0 0 N 0 96.6 404
04:04:48 0 1010 0 0 O 0 96.6 407
04:07:47 0 1010 0 0 O 0 96.6 404
04:10:45 0 1010 0 0 O 0 96.6 404
04:13:46 -1 1010 0 0 O 0 96.6 407
04:16:45 -1 1010 0 0 O 0 96.6 407
04:19:46 -1 1011 0 0 SO 0 96.6 407
04:22:48 -1 1011 0 0 SO 0 96.6 407
04:25:45 -1 1011 0 0 O 0 96.6 407
04:28:46 -1 1010 0 0 O 0 96.6 407
04:31:47 -1 1011 0 0 O 0 96.6 407
04:34:45 -1 1011 0 0 O 0 96.6 407
04:37:46 -1 1010 0 0 O 0 96.6 407
04:40:45 -1 1010 0 0 O 0 96.6 407
04:43:46 -1 1010 0 0 O 0 96.6 407
04:46:46 -1 1010 0 1 SO 0 96.6 401
04:49:48 -1 1011 0 0 SO 0 96.6 407
04:52:45 -1 1010 0 0 NO 0 96.6 406
04:55:47 -1 1010 0 0 NO 0 96.6 407
04:58:46 -1 1010 0 0 NO 0 96.6 405
05:01:48 -1 1010 0 0 NO 0 96.6 407
05:04:47 -1 1010 0 0 NO 0 96.6 404
05:07:49 -1 1011 0 0 NO 0 96.6 404
05:10:47 -1 1011 0 0 NO 0 96.6 407
05:13:46 -1 1011 0 0 NO 0 96.6 407
05:16:45 -1 1011 0 0 N 0 96.6 404
05:19:48 -1 1011 0 0 N 0 96.6 408
05:22:47 -1 1010 0 0 SO 0 96.6 407
05:25:46 -1 1011 0 0 O 0 96.6 408
05:28:45 -1 1010 0 0 O 0 96.6 404
05:31:46 -1 1010 0 0 O 0 96.6 405
05:34:48 -1 1010 0 0 O 0 96.6 404
05:37:45 -1 1010 0 0 O 0 96.6 404
05:40:46 -1 1010 0 0 NO 0 96.6 404
05:43:49 -1 1010 0 0 SO 0 96.6 407
05:46:45 -1 1010 0 1 SO 0 96.6 405
05:49:47 -1 1010 0 0 N 0 96.6 407
05:52:46 -1 1010 0 0 O 0 96.6 407
05:55:48 -1 1010 0 0 SO 0 96.6 407
05:58:46 -1 1011 0 0 SO 0 96.6 407
06:01:46 -2 1010 0 0 SW 0 96.6 407
06:04:45 -1 1011 0 0 N 0 96.6 407
06:07:46 -1 1010 4 0 N 0 96.6 404
06:10:47 -1 1010 8 0 NO 0 96.6 404
06:13:46 -1 1010 13 0 NO 0 96.6 404
06:16:47 -1 1010 21 0 NO 0 96.6 407
06:19:47 -1 1010 31 0 NO 0 96.6 405
06:22:48 -1 1010 43 0 NO 0 96.6 407
06:25:48 -1 1010 57 0 NO 0 96.6 403
06:28:47 -1 1010 71 0 NO 0 96.6 404
06:31:47 -2 1011 83 0 NO 0 96.6 407
06:34:48 -2 1010 95 0 NO 0 96.6 407
06:37:48 -1 1011 106 0 NO 0 96.6 404
06:40:48 -1 1011 117 0 SO 0 96.6 405
06:43:48 -1 1011 127 0 NO 0 96.6 407
06:46:47 -1 1010 135 0 NO 0 96.6 405
06:49:47 -1 1010 143 0 NO 0 96.6 408
06:52:50 -1 1010 149 0 NO 0 96.6 407
06:55:47 -1 1011 155 0 NO 0 96.6 401
06:58:48 -1 1010 159 0 NO 0 96.6 408
07:01:49 -1 1011 162 0 NO 0 96.6 407
07:04:48 -1 1010 166 0 NO 0 96.6 409
07:07:47 -1 1010 170 0 NO 0 96.6 407
07:10:46 -1 1011 173 0 NO 0 96.6 404
07:13:48 -1 1011 174 0 NO 0 96.6 404
07:16:49 -1 1011 177 0 NO 0 96.6 407
07:19:48 -1 1012 179 0 NO 0 96.6 405
07:22:50 -1 1011 181 0 S 0 96.6 407
07:25:50 -1 1011 182 0 S 0 96.6 405
07:28:47 -1 1011 182 0 S 0 96.6 407
07:31:48 -1 1011 184 0 S 0 96.6 404
07:34:47 0 1011 185 0 S 0 96.6 405
07:37:47 0 1011 187 0 S 0 96.6 407
07:40:48 0 1011 190 0 S 0 96.6 406
07:43:48 0 1011 192 0 S 0 96.6 407
07:46:49 0 1012 194 0 NW 0 96.6 404
07:49:48 1 1012 195 0 NO 0 96.6 404
07:52:47 1 1012 198 0 N 0 96.6 404
07:55:47 1 1012 200 0 O 0 96.6 405
07:58:50 1 1012 202 0 NW 0 96.6 405
08:01:50 1 1011 203 0 NW 0 96.6 405
08:04:49 1 1011 204 0 NW 0 96.6 404
08:07:50 1 1012 205 0 NW 0 96.6 408
08:10:49 2 1011 205 0 NW 0 96.6 404
08:13:48 2 1012 206 0 S 0 96.6 407
08:16:49 2 1012 207 0 SO 0 96.6 404
08:19:48 2 1012 206 0 SO 0 96.6 407
08:22:49 3 1012 206 0 SO 0 96.6 404
08:25:49 3 1011 205 0 SO 0 96.6 404
08:28:49 4 1012 204 0 SO 0 96.6 407
08:31:50 4 1012 204 0 NW 0 96.6 407
08:34:51 4 1012 205 0 NW 0 96.6 405
08:37:49 4 1012 206 0 NW 0 96.6 407
08:40:48 4 1012 207 0 NW 0 96.6 404
08:43:49 5 1012 207 1 NW 0 96.6 407
08:46:48 5 1012 208 0 NW 0 96.6 404
08:49:51 5 1012 209 0 NW 0 96.6 406
08:52:48 5 1012 210 0 NW 0 96.6 404
08:55:49 5 1012 212 0 NW 0 96.6 404
08:58:48 6 1013 213 0 NW 0 96.6 407
09:01:48 6 1012 213 0 NW 0 96.6 401
09:04:47 6 1012 214 0 NW 0 96.6 407
09:07:49 6 1013 214 0 NW 0 96.6 407
09:10:50 6 1012 215 0 NW 0 96.6 407
09:13:48 7 1012 216 0 N 0 96.6 408
09:16:47 7 1013 216 0 N 0 96.6 404
09:19:47 7 1013 216 0 N 0 96.6 407
09:22:47 7 1012 216 0 N 0 96.6 405
09:25:46 7 1013 216 0 S 0 96.6 407
09:28:49 8 1012 216 0 SO 0 96.6 407
09:31:48 8 1012 216 0 SO 0 96.6 407
09:34:49 8 1012 216 0 SO 0 96.6 404
09:37:46 8 1013 217 0 O 0 96.6 407
09:40:50 8 1013 217 0 O 0 96.6 402
09:43:46 8 1013 217 0 O 0 96.6 407
09:46:48 8 1012 217 0 NO 0 96.6 405
09:49:47 8 1012 217 0 NO 0 96.6 407
09:52:48 8 1012 217 0 SO 0 96.6 404
09:55:47 8 1012 216 0 O 0 96.6 401
09:58:48 8 1012 215 0 O 0 96.6 404
10:01:45 8 1013 214 0 O 0 96.5 404
10:04:50 9 1013 214 1 SO 0 96.5 405
10:07:47 9 1013 214 0 SW 0 95.8 407
10:10:46 9 1013 215 0 S 0 95.6 401
10:13:47 9 1013 217 0 N 0 96.4 404
10:16:47 9 1013 218 0 N 0 96.2 404
10:19:49 9 1013 219 0 SO 0 95.4 407
10:22:47 9 1013 221 0 SO 0 94.1 404
10:25:47 9 1013 223 1 SW 0 93.6 404
10:28:46 10 1013 223 2 NW 0 94.5 404
10:31:49 10 1013 223 7 S 0 92.5 404
10:34:48 10 1013 225 3 S 0 91.8 404
10:37:48 10 1013 225 3 SO 0 90.2 403
10:40:48 11 1012 226 2 SO 0 89.7 401
10:43:49 11 1013 226 3 S 0 89.4 404
10:46:49 11 1012 226 1 SO 0 84.9 407
10:49:51 11 1013 226 3 SO 0 84.1 407
10:52:48 11 1013 226 5 S 0 84.4 404
10:55:49 11 1012 226 1 NW 0 85.1 407
10:58:48 11 1013 224 2 S 0 82.6 405
11:01:49 11 1013 223 5 SO 0 82.1 407
11:04:50 11 1012 223 0 NW 0 82.4 405
11:07:50 11 1013 222 4 SO 0 81.4 405
11:10:49 11 1013 224 3 O 0 81.6 407
11:13:47 12 1013 226 4 S 0 82 404
11:16:47 12 1013 226 2 O 0 83.3 404
11:19:49 12 1012 227 5 SO 0 81.9 401
11:22:49 12 1013 227 2 SO 0 80.7 404
11:25:48 12 1013 227 2 O 0 79.3 407
11:28:49 13 1013 226 3 SO 0 78.8 406
11:31:50 13 1013 225 2 N 0 76.5 404
11:34:50 13 1012 225 4 SO 0 74.6 404
11:37:47 13 1013 227 2 S 0 75.3 406
11:40:30 12 1013 229 2 S 0 67.6 413
11:43:48 13 1013 228 5 S 0 75.1 419
11:46:49 14 1013 227 3 SO 0 75.8 413
11:49:48 14 1013 228 2 NO 0 71.9 407
11:52:44 13 1012 228 3 S 0 71.1 404
11:55:47 13 1013 227 5 O 0 70.9 408
11:58:49 13 1013 228 1 S 0 71 407
12:01:46 13 1013 228 1 W 0 71.4 404
12:04:51 13 1013 228 3 SO 0 72.9 407
12:07:48 13 1013 229 1 SW 0 73.3 405
12:10:47 13 1013 229 3 SW 0 73.3 406
12:13:48 13 1013 228 2 SO 0 72.7 408
12:16:47 13 1013 228 2 S 0 73.1 411
12:19:49 13 1013 229 2 SW 0 72.5 407
12:22:49 14 1013 229 7 S 0 69.2 404
12:25:47 14 1013 229 4 O 0 68.6 404
12:28:50 14 1013 230 5 SO 0 70.2 407
12:31:48 14 1013 230 3 SO 0 70.7 409
12:34:49 14 1013 228 10 S 0 70.6 407
12:37:47 14 1012 226 3 S 0 69.2 404
12:40:50 14 1012 231 2 N 0 68.2 405
12:43:49 14 1013 230 8 SO 0 68 407
12:46:50 14 1013 229 6 SO 0 67.2 407
12:49:48 14 1012 229 7 SO 0 66.9 407
12:52:46 14 1012 229 4 SO 0 65.5 404
12:55:47 14 1012 229 2 SO 0 63.6 404
12:58:48 15 1013 230 4 S 0 64.8 405
13:01:48 15 1013 231 3 SO 0 63.4 406
13:04:47 15 1013 231 4 S 0 63.2 404
13:07:47 15 1013 231 8 S 0 62.3 404
13:10:48 14 1013 228 1 N 0 60.9 403
13:13:48 14 1012 228 5 S 0 60.5 408
13:16:48 14 1012 228 4 SO 0 61.2 404
13:19:48 14 1012 230 6 SO 0 61.1 407
13:22:49 14 1012 231 7 SO 0 61.9 407
13:25:46 14 1013 231 2 O 0 62.1 406
13:28:49 14 1012 231 1 SW 0 62.8 408
13:31:46 14 1012 231 6 O 0 63.6 404
13:34:47 13 1012 231 1 O 0 61.2 404
13:37:48 13 1011 233 0 O 0 62.5 407
13:40:49 14 1012 234 4 SO 0 63.4 405
13:43:46 14 1012 233 11 SO 0 62.1 404
13:46:45 14 1012 232 7 O 0 60.2 405
13:49:48 14 1012 232 7 O 0 61.1 407
13:52:50 14 1012 231 5 SO 0 60.6 405
13:55:48 14 1011 230 6 S 0 59.9 404
13:58:48 14 1011 229 4 S 0 59.5 407
14:01:48 14 1011 230 1 SO 0 60 405
14:04:48 14 1012 230 5 S 0 61 405
14:07:48 14 1012 231 1 SO 0 61.3 404
14:10:48 14 1012 231 6 SO 0 61.3 407
14:13:48 14 1012 231 4 NO 0 61.4 407
14:16:46 13 1012 232 3 0 61 407
14:19:48 13 1012 232 2 NO 0 62 404
14:22:50 14 1012 233 5 SO 0 62.4 404
14:25:47 14 1012 233 4 S 0 62.7 407
14:28:48 14 1011 234 3 S 0 61.5 407
14:31:48 14 1011 235 7 SO 0 60.9 404
14:34:49 14 1012 235 5 SO 0 60.8 404
14:37:48 14 1011 236 6 SO 0 60.3 407
14:40:48 14 1012 238 5 O 0 58.9 404
14:43:46 14 1012 237 3 O 0 58.6 404
14:46:32 13 1012 239 0 SO 0 51.6 404
14:49:47 14 1012 239 6 N 0 57.6 407
14:52:47 14 1012 241 4 SO 0 58 407
14:55:49 15 1012 243 0 O 0 59.1 404
14:58:45 15 1012 243 4 S 0 58.7 407
15:01:48 15 1012 243 2 NO 0 57.2 407
15:04:48 15 1012 244 3 SO 0 56.5 404
15:07:50 16 1012 245 10 SO 0 56.4 404
15:10:30 14 1012 245 2 S 0 49.4 407
15:13:47 15 1012 245 6 SO 0 52.1 407
15:16:47 15 1012 244 2 N 0 51.7 404
15:19:49 15 1012 245 2 SO 0 53.4 404
15:22:48 15 1012 245 5 SO 0 52.3 407
15:25:49 15 1011 245 1 O 0 53.8 402
15:28:49 15 1012 245 3 W 0 53.3 405
15:31:48 15 1011 245 4 W 0 52.8 405
15:34:48 15 1011 244 7 S 0 51 404
15:37:47 15 1012 243 3 NO 0 50.4 404
15:40:48 15 1012 243 5 NO 0 49.4 407
15:43:29 14 1012 240 7 O 0 40 407
15:46:48 14 1012 241 2 N 0 51.4 407
15:49:47 13 1011 242 0 NO 0 51.4 403
15:52:45 13 1012 241 2 NO 0 51.8 404
15:55:47 14 1011 239 0 N 0 54 407
15:58:46 14 1012 239 2 O 0 54.1 406
16:01:44 14 1011 241 1 W 0 54.7 407
16:04:47 14 1011 241 4 O 0 53.6 407
16:07:46 14 1011 238 0 SO 0 53.1 407
16:10:48 14 1011 240 3 O 0 53.5 406
16:13:49 14 1011 240 4 S 0 55.4 404
16:16:46 14 1011 241 3 SW 0 55.1 407
16:19:48 14 1011 237 4 NO 0 54.3 403
16:22:51 14 1012 232 3 NW 0 53.9 407
16:25:46 14 1012 234 3 N 0 54.1 404
16:28:49 14 1011 232 1 SW 0 54.4 404
16:31:47 13 1011 234 6 O 0 54.6 406
16:34:50 13 1010 230 4 O 0 54.9 404
16:37:48 13 1011 234 2 N 0 55.9 404
16:40:48 13 1010 235 2 S 0 56.1 405
16:43:48 13 1011 239 5 NO 0 57.4 407
16:46:48 13 1011 236 5 O 0 58 407
16:49:49 13 1011 230 1 N 0 59 404
16:52:47 13 1010 234 0 S 0 59.1 407
16:55:48 12 1010 230 4 O 0 58.8 407
16:58:49 12 1010 232 4 SO 0 58.9 404
17:01:47 12 1010 232 4 NW 0 59.3 404
17:04:49 12 1010 230 3 NO 0 60.1 405
17:07:48 12 1010 224 5 S 0 60.8 407
17:10:48 11 1010 220 6 NO 0 60.6 407
17:13:48 11 1010 223 3 O 0 61.2 407
17:16:48 11 1010 220 0 SW 0 61.8 403
17:19:48 11 1010 217 2 SO 0 62.3 407
17:22:49 11 1010 212 2 W 0 62.9 407
17:25:47 11 1011 208 3 SO 0 63.4 404
17:28:49 11 1010 212 0 N 0 64.2 407
17:31:48 11 1010 212 0 NO 0 64.4 407
17:34:49 10 1010 206 0 O 0 64.8 404
17:37:48 10 1010 202 1 NO 0 65.4 404
17:40:48 10 1011 199 3 O 0 65.9 406
17:43:46 10 1011 197 2 SO 0 66.4 404
17:46:47 10 1010 194 2 O 0 66.8 407
17:49:46 10 1010 191 2 O 0 67.1 404
17:52:49 10 1010 187 2 N 0 67.7 407
17:55:47 10 1011 182 0 O 0 68.1 405
17:58:45 9 1010 176 0 O 0 68.2 404
18:01:49 9 1010 169 1 O 0 68.6 404
18:04:46 9 1011 161 0 O 0 69.3 408
18:07:46 9 1010 151 0 O 0 69.3 407
18:10:46 9 1010 141 0 O 0 69.7 404
18:13:46 8 1010 131 0 O 0 70.5 407
18:16:48 8 1010 121 0 NO 0 73.5 407
18:19:47 8 1010 109 1 SO 0 73.6 408
18:22:48 8 1010 95 0 NO 0 74.5 404
18:25:47 8 1010 81 0 O 0 74.3 407
18:28:46 8 1010 65 0 O 0 74 404
18:31:45 8 1010 51 0 O 0 73.9 407
18:34:48 8 1010 37 0 NO 0 75.4 404
18:37:47 8 1010 25 0 O 0 75.8 404
18:40:48 7 1010 16 0 N 0 75.6 407
18:43:47 7 1010 9 1 N 0 75.8 404
18:46:44 7 1010 5 0 NO 0 76 407
18:49:47 7 1010 3 0 O 0 76.8 407
18:52:46 6 1010 0 0 O 0 77.4 407
18:55:46 6 1011 0 0 NO 0 77.9 407
18:58:50 6 1010 0 0 NO 0 78.2 407
19:01:46 6 1010 0 0 O 0 80.3 407
19:04:48 6 1010 0 0 NO 0 80.8 406
19:07:46 7 1010 0 1 O 0 80.9 408
19:10:45 7 1010 0 1 O 0 80.5 405
19:13:44 7 1010 0 0 O 0 79.5 404
19:16:48 7 1010 0 1 SO 0 78.9 404
19:19:45 7 1010 0 1 O 0 78.9 404
19:22:45 7 1010 0 4 O 0 78.7 404
19:25:46 7 1010 0 2 NO 0 78.5 405
19:28:45 7 1010 0 3 O 0 78.1 405
19:31:47 7 1010 0 1 SO 0 77.7 404
19:34:46 8 1010 0 0 NO 0 77.5 407
19:37:48 8 1010 0 1 NO 0 77.2 407
19:40:45 7 1010 0 0 O 0 77 405
19:43:47 7 1010 0 0 SO 0 77 405
19:46:47 7 1010 0 1 SO 0 77.1 407
19:49:47 7 1010 0 1 NO 0 77.2 405
19:52:50 7 1010 0 1 SO 0 78.2 403
19:55:47 7 1010 0 0 NO 0 78.3 408
19:58:46 7 1010 0 1 NO 0 77.9 408
20:01:44 7 1010 0 1 O 0 78.3 404
20:04:46 7 1010 0 1 NO 0 78.4 405
20:07:47 7 1010 0 0 NO 0 78.1 401
20:10:45 7 1010 0 0 O 0 77.9 405
20:13:48 7 1010 0 0 NO 0 77.3 407
20:16:46 6 1010 0 0 NO 0 77.5 404
20:19:46 6 1010 0 0 NO 0 78.1 407
20:22:45 6 1011 0 0 NO 0 78.4 403
20:25:47 6 1010 0 0 SO 0 79 407
20:28:46 6 1010 0 0 N 0 79.8 404
20:31:47 5 1010 0 0 N 0 80.3 407
20:34:48 5 1010 0 1 NO 0 80.9 404
20:37:47 5 1010 0 0 NO 0 81.7 406
20:40:49 5 1010 0 0 NO 0 82.2 407
20:43:47 5 1011 0 0 NO 0 82.3 407
20:46:46 5 1010 0 0 NO 0 82.5 407
20:49:48 5 1011 0 0 NO 0 82.3 404
20:52:47 5 1011 0 0 NO 0 82.3 407
20:55:46 5 1010 0 0 NO 0 83.2 404
20:58:46 5 1010 0 0 NO 0 84.4 407
21:01:48 5 1010 0 0 NO 0 85.1 406
21:04:47 5 1010 0 0 NO 0 84.4 407
21:07:45 5 1010 0 0 NO 0 83.5 407
21:10:46 4 1011 0 2 SO 0 83.5 404
21:13:46 4 1010 0 0 N 0 84 407
21:16:44 4 1010 0 0 NO 0 85.2 404
21:19:45 4 1010 0 1 O 0 87.7 405
21:22:47 5 1010 0 0 NO 0 87.9 407
21:25:45 5 1010 0 0 O 0 86.8 407
21:28:46 5 1010 0 0 O 0 87.2 405
21:31:46 5 1010 0 0 NO 0 88 401
21:34:45 5 1011 0 1 NO 0 87.4 404
21:37:48 5 1010 0 1 O 0 86.7 404
21:40:47 5 1010 0 2 NO 0 86.4 406
21:43:47 5 1010 0 2 NO 0 86.3 407
21:46:45 5 1010 0 1 O 0 86.5 404
21:49:47 5 1010 0 0 NO 0 86.1 407
21:52:44 5 1011 0 0 N 0 85.7 407
21:55:46 5 1010 0 0 NO 0 85.3 407
21:58:47 5 1011 0 0 SO 0 85.5 404
22:01:47 5 1011 0 1 SO 0 86.1 404
22:04:48 5 1011 0 0 NW 0 87 407
22:07:46 5 1010 0 1 O 0 87.2 405
22:10:46 6 1011 0 4 O 0 88 407
22:13:46 6 1010 0 3 S 0 87.7 407
22:16:48 6 1010 0 1 SW 0 86.9 401
22:19:47 6 1010 0 1 O 0 85.8 404
22:22:49 6 1010 0 1 SW 0 85.3 407
22:25:47 6 1010 0 4 NW 0 85.2 404
22:28:49 6 1010 0 2 SW 0 85.1 404
22:31:45 6 1010 0 1 0 85.1 404
22:34:47 6 1010 0 1 NW 0 85.5 407
22:37:46 6 1010 0 7 NO 0 85.8 405
22:40:48 6 1010 0 2 NO 0 86.1 408
22:43:47 6 1010 0 0 O 0 86.3 405
22:46:46 6 1010 0 0 NO 0 86.2 407
22:49:46 6 1011 0 5 O 0 86.1 407
22:52:47 6 1010 0 4 NO 0 86 405
22:55:46 6 1010 0 1 N 0 86 405
22:58:48 6 1010 0 0 NW 0 85.9 403
23:01:47 6 1010 0 1 W 0 85.7 407
23:04:44 6 1010 0 0 0 85.8 405
23:07:47 6 1010 0 5 SW 0 85.9 404
23:10:50 6 1010 0 6 SO 0 86.2 407
23:13:45 6 1010 0 6 NO 0 86.3 404
23:16:46 6 1010 0 2 SW 0 86.5 407
23:19:50 6 1010 0 3 SO 0 86.6 405
23:22:47 6 1010 0 6 O 0 86.5 399
23:25:46 6 1010 0 3 SO 0 86.6 407
23:28:48 6 1010 0 0 S 0 86.6 404
23:31:48 6 1010 0 3 SO 0 86.7 404
23:34:49 6 1010 0 2 SW 0 87 407
23:37:49 6 1010 0 3 NW 0 87.1 405
23:40:48 6 1010 0 2 NO 0 87.2 404
23:43:48 6 1010 0 1 SO 0 87.4 404
23:46:47 6 1010 0 3 W 0 87.5 407
23:49:47 6 1010 0 2 O 0 87.5 407
23:52:48 6 1010 0 2 S 0 88 402
23:55:46 6 1010 0 0 SW 0 88 406
23:58:44 5 1010 0 2 0 88.1 407

Letzte Änderung : 22-Jul-2022
Copyright Jens Köhler, Wolfsburg, Obere Dorfstraße 10d